Regional Weather Roundup
Issued by NWS

Home | Current Version | Previous Version | Graphics & Text | Print | Product List | Glossary On
Versions: 1 2 3 4 5 6 7 8 9 10 11 12 13 14 15 16 17 18 19 20 21 22 23 24 25 26 27 28 29 30 31 32 33 34 35 36 37 38 39 40 41 42 43 44 45 46 47 48 49 50
051
ASUS43 KBIS 281910
RWRND

NORTH DAKOTA REGIONAL WEATHER ROUNDUP
NATIONAL WEATHER SERVICE BISMARCK ND
200 PM CDT TUE MAR 28 2017

NOTE: "FAIR" INDICATES FEW OR NO CLOUDS BELOW 12,000 FEET WITH NO
SIGNIFICANT WEATHER AND/OR OBSTRUCTIONS TO VISIBILITY.


NDZ001>003-009>011-017-282000-
NORTHWEST NORTH DAKOTA

CITY           SKY/WX    TMP DP  RH WIND       PRES   REMARKS
WILLISTON      FAIR      50  39  66 SE6       30.08F
MINOT          CLOUDY    48  40  73 E8        30.11F
MINOT AFB      CLOUDY    42  39  90 SE10      30.11F
$$

NDZ018>021-031>035-040>046-282000-
SOUTHWEST NORTH DAKOTA

CITY           SKY/WX    TMP DP  RH WIND       PRES   REMARKS
BISMARCK       FAIR      56  39  53 E8        30.13F
DICKINSON      FAIR      57  32  38 SE14      30.05S
GARRISON         N/A     48  39  71 SE7       30.11F
HETTINGER ARPT CLOUDY    58  38  47 SE15      30.07S
$$

NDZ004>008-012>016-024-026-027-054-282000-
NORTHEAST NORTH DAKOTA

CITY           SKY/WX    TMP DP  RH WIND       PRES   REMARKS
GRAND FORKS    PTSUNNY   51  40  65 NE8       30.20S
GRND FRKS AFB  CLOUDY    49  38  67 NE7       30.20F
DEVILS LAKE    FAIR      49  37  63 SE9       30.19R
$$

NDZ022-023-025-028>030-036>039-047>053-282000-
SOUTHEAST NORTH DAKOTA

CITY           SKY/WX    TMP DP  RH WIND       PRES   REMARKS
FARGO          CLOUDY    54  41  61 N5        30.18S
JAMESTOWN      FAIR      51  42  71 SE8       30.16S
$$





USA.gov is the U.S. government's official web portal to all federal, state and local government web resources and services.